GFSFLT2_250_rhum_003.txt.gz
RH
10 8 5 4 4 4 3 3 2 2 2 2 2 2 2 2 3 3 4 4 5 8 12 13 19 20 23
5 4 4 4 3 2 2 2 2 2 2 2 2 2 2 2 2 2 3 3 4 5 7 9 14 28 42
4 3 2 2 2 2 2 2 2 2 2 2 2 2 2 2 2 2 3 4 4 4 4 6 8 14 21
3 2 2 2 2 2 2 2 2 2 1 2 1 1 1 2 2 2 3 4 3 3 4 5 6 10 14
2 2 3 2 2 2 1 1 1 1 1 2 2 1 1 2 2 2 3 4 4 4 5 4 5 7 11
2 3 3 2 1 1 1 2 2 1 1 2 2 2 2 2 2 3 4 4 4 5 5 5 5 6 8
2 2 2 2 2 2 2 1 1 1 1 2 2 2 2 2 3 4 4 4 5 5 5 5 5 6 7
2 2 2 2 2 2 2 2 2 2 2 3 2 2 2 2 3 4 5 5 5 5 6 6 6 6 7
2 2 3 3 2 2 3 3 3 3 3 3 2 2 3 3 4 5 5 5 6 6 6 6 6 6 6
2 3 3 2 3 4 4 4 4 4 4 3 3 3 3 4 5 5 5 5 6 6 6 7 7 8 7
3 3 3 4 4 5 5 5 5 5 4 4 3 3 3 4 4 5 5 6 6 7 7 8 8 7 7
4 3 4 5 5 5 5 5 5 5 4 4 4 4 5 5 5 5 5 5 7 8 9 10 10 8 8
4 5 5 5 5 5 5 5 5 5 5 5 5 6 6 6 6 6 6 8 8 9 11 11 10 10 9
6 6 6 5 6 6 7 7 7 7 6 6 6 7 6 6 7 7 7 8 10 11 12 14 12 12 9
7 6 6 7 8 9 9 8 8 8 8 9 8 8 8 9 10 12 11 11 11 12 13 13 13 13 12
7 8 9 10 11 11 10 11 11 11 11 10 10 9 10 12 13 15 13 12 12 12 13 14 14 14 13
9 11 12 12 13 13 12 12 12 11 10 10 12 13 15 16 17 17 17 16 15 14 12 12 14 15 15

GFSFLT2_250_rhum_006.txt.gz
RH
23 24 16 7 6 5 4 3 3 3 2 2 2 2 2 2 2 2 2 3 3 4 4 5 6 8 8
8 6 5 4 4 3 4 3 3 2 2 2 2 2 2 2 2 2 2 2 2 3 3 4 6 6 8
4 4 3 3 4 4 3 2 2 2 2 2 2 2 1 1 1 1 2 2 2 3 3 4 4 4 7
4 3 3 4 3 2 2 2 2 2 1 2 1 1 1 1 1 1 2 2 2 2 3 3 3 4 5
3 3 3 3 2 2 2 2 2 1 2 2 2 2 1 1 1 1 1 2 2 2 3 3 4 4 5
3 2 2 2 2 2 2 2 2 1 3 2 2 1 1 1 1 1 1 2 2 2 3 3 4 4 5
2 2 2 2 2 2 2 2 2 2 2 1 1 1 1 1 1 1 2 2 2 2 3 3 4 5 5
3 2 2 2 2 2 2 2 2 2 2 2 2 2 2 2 2 2 2 2 2 2 3 4 4 4 4
3 2 2 2 2 2 2 2 2 3 4 4 4 3 3 3 3 2 2 2 2 3 3 3 4 4 4
3 2 2 3 3 3 3 4 4 4 5 5 4 4 4 3 3 3 3 2 2 3 3 3 4 4 4
2 3 3 3 3 4 4 4 4 5 5 5 5 4 4 4 3 3 3 3 3 3 4 4 4 4 4
3 3 3 4 5 5 5 5 5 5 5 5 5 5 4 4 4 4 4 4 4 4 4 4 5 5 5
4 3 4 6 6 6 6 7 7 6 6 6 5 5 5 4 4 5 5 6 6 6 6 6 6 6 6
4 5 7 7 7 7 8 8 8 8 8 7 6 6 6 6 6 6 6 7 7 7 7 7 7 8 7
6 8 9 10 10 9 9 9 9 9 9 9 9 8 8 9 8 8 8 8 8 9 10 11 11 10 10
10 10 11 11 11 12 12 11 10 10 10 10 10 9 8 8 9 11 12 10 10 10 11 12 14 14 13
12 13 13 13 13 13 12 12 12 11 10 10 11 12 12 12 13 13 13 14 12 13 14 16 17 17 15

GFSFLT2_250_rhum_009.txt.gz
RH
23 23 21 15 12 6 4 4 4 4 3 3 3 3 3 3 3 3 4 4 4 3 3 3 3 3 4
16 13 8 5 5 4 4 3 3 2 2 2 2 2 3 3 3 2 2 2 2 2 2 2 2 3 4
6 4 4 4 3 3 3 2 2 2 2 2 2 2 2 2 2 2 2 2 2 2 2 2 2 2 2
4 4 3 3 3 3 3 2 2 2 2 2 2 2 2 2 2 2 1 1 1 2 2 2 2 2 2
3 3 4 4 3 3 3 3 2 2 2 2 2 2 2 1 2 2 2 2 2 1 1 2 2 2 3
3 3 3 3 3 2 2 2 2 2 2 1 2 2 2 2 2 2 2 2 2 2 1 1 2 2 2
3 3 3 3 3 2 2 2 2 2 2 2 2 2 2 2 2 2 1 1 1 1 1 1 1 2 2
3 3 3 3 3 2 2 2 2 3 3 2 2 3 3 3 2 2 2 1 1 1 1 1 1 2 2
3 3 3 3 2 2 2 3 3 3 3 3 3 4 4 4 3 2 2 2 2 2 2 2 2 2 2
3 3 2 2 2 3 3 3 4 4 4 4 4 4 4 4 4 3 3 3 3 2 2 2 2 2 2
2 2 2 3 3 4 4 4 4 4 4 4 4 5 5 5 4 4 4 3 3 2 2 2 2 2 2
2 2 4 4 4 5 5 5 5 6 6 5 5 5 5 5 5 4 4 4 3 3 3 3 3 3 3
3 4 4 5 6 6 6 6 6 7 7 7 7 6 6 6 6 5 5 5 5 4 4 4 4 4 4
5 5 6 7 8 8 8 8 8 9 9 8 7 7 8 8 6 6 5 5 5 5 5 5 5 6 6
7 8 9 10 11 11 10 10 10 9 10 10 9 9 8 7 8 8 8 6 6 6 6 6 6 6 5
10 12 12 13 13 11 10 10 11 10 9 9 10 9 9 9 9 7 8 8 8 8 8 8 7 6 6
13 15 16 17 17 14 14 13 13 13 10 9 9 9 10 10 10 10 9 9 9 9 10 10 9 9 9

GFSFLT2_250_rhum_012.txt.gz
RH
28 25 21 18 16 14 10 7 5 4 3 3 3 3 3 3 3 3 3 3 3 3 3 3 3 3 4
18 15 12 11 8 6 5 4 3 3 3 3 3 2 2 2 2 2 2 2 2 2 2 2 2 2 2
10 8 6 5 5 4 4 3 2 2 2 2 2 2 2 2 2 2 2 2 2 2 2 2 2 2 2
5 4 4 3 3 3 3 3 2 2 2 2 2 2 2 2 2 2 2 2 2 2 2 2 2 2 2
3 3 3 3 3 3 3 3 2 2 3 2 2 2 2 2 2 2 1 1 1 1 1 1 2 2 2
2 3 4 3 3 3 3 3 3 2 3 2 2 2 2 2 2 2 2 1 1 1 1 1 1 2 2
3 3 3 3 3 3 2 2 2 2 2 1 2 2 2 2 2 2 2 2 2 1 1 2 2 2 2
3 3 3 3 3 2 2 2 2 2 2 2 2 3 3 3 2 2 2 2 2 2 1 1 1 1 2
3 3 2 2 2 2 2 2 2 3 3 4 3 4 4 3 3 3 3 3 3 2 2 1 1 1 1
2 2 2 2 2 2 3 3 3 4 5 4 4 4 4 4 4 4 4 3 3 2 2 2 1 1 1
2 2 2 2 3 4 4 4 5 6 5 5 5 4 4 4 4 4 4 3 3 3 2 2 2 1 1
3 3 3 4 5 5 6 7 7 6 6 7 6 6 5 4 5 4 4 3 3 3 2 3 2 2 2
4 4 5 6 7 7 8 8 7 8 7 7 8 7 6 5 5 5 4 4 3 3 3 3 2 2 2
6 7 8 10 10 10 9 10 10 9 9 9 8 7 7 7 6 5 5 5 4 4 3 3 3 3 3
8 9 11 13 13 13 10 10 11 11 10 10 9 10 9 7 8 7 6 5 5 5 4 4 4 4 4
11 13 14 16 16 16 14 13 14 11 11 10 10 10 10 9 8 8 7 6 6 6 5 5 5 5 5
14 15 15 17 15 15 16 17 18 20 17 14 9 10 10 10 11 10 8 7 6 7 6 6 5 5 6

GFSFLT2_250_rhum_018.txt.gz
RH
22 20 18 16 14 8 5 3 3 3 3 3 3 2 3 3 3 3 3 3 3 3 3 3 3 3 4
17 16 15 9 6 5 4 4 2 2 2 2 2 2 2 2 2 2 2 2 2 2 2 2 2 2 2
11 9 7 6 6 5 4 3 2 2 2 2 2 2 2 2 2 2 2 2 2 2 2 2 2 2 2
7 6 6 5 4 3 3 3 2 2 2 2 2 2 2 2 2 2 2 2 2 2 2 2 2 2 2
6 5 4 4 4 3 3 3 2 2 2 2 2 2 2 2 2 2 2 2 2 2 2 2 2 2 2
5 5 4 4 3 3 3 2 2 2 2 1 2 2 2 2 2 2 2 2 2 2 2 2 2 2 2
5 5 4 4 3 2 2 2 3 3 2 2 2 2 2 2 2 2 2 2 2 2 2 2 2 2 2
5 4 4 3 3 3 3 2 2 3 3 3 3 2 3 3 3 3 3 3 3 3 2 2 2 2 2
5 4 4 4 4 3 3 2 3 4 5 5 5 3 4 3 4 4 4 4 4 4 3 3 2 2 2
4 4 4 4 5 6 6 5 6 6 6 6 6 6 5 5 5 5 5 5 4 4 3 3 3 3 2
4 4 5 6 7 8 9 9 8 10 10 7 7 7 7 6 6 6 6 5 4 4 4 4 3 3 3
5 5 6 9 11 12 12 12 12 14 10 8 8 8 8 8 8 7 7 6 5 5 4 4 3 3 3
5 7 9 11 12 14 13 14 15 14 13 12 9 9 8 9 9 9 8 6 6 5 4 3 3 3 2
7 10 11 14 15 15 14 14 14 14 14 14 10 9 9 9 10 10 8 7 6 5 4 3 3 3 2
11 13 16 18 20 19 17 15 14 14 15 16 13 11 10 10 11 11 8 8 7 6 4 3 3 3 3
13 14 15 17 19 19 22 20 16 16 17 18 14 12 12 13 12 12 8 8 8 6 4 3 4 3 2
10 12 13 14 14 15 18 25 20 16 16 21 16 13 14 15 12 12 8 8 8 6 5 4 4 3 2

GFSFLT2_250_rhum_021.txt.gz
RH
39 35 24 16 19 18 8 5 5 4 4 4 4 3 3 3 3 3 3 3 2 2 2 2 2 3 3
39 22 18 24 15 7 6 5 5 4 4 3 3 3 3 2 2 2 2 2 2 2 2 2 2 2 2
21 24 23 12 8 6 5 4 3 4 3 3 2 3 2 2 2 2 2 2 2 2 2 2 2 2 2
19 18 10 7 6 5 4 3 3 3 3 2 2 2 2 2 2 2 2 2 2 2 2 2 2 2 2
16 8 6 6 4 4 4 3 3 3 2 2 2 2 2 2 2 2 1 1 2 2 1 2 2 2 2
7 6 6 4 4 4 4 4 3 3 3 2 3 2 2 2 2 2 2 2 2 2 2 2 2 2 2
6 5 5 5 5 4 4 3 3 4 4 3 3 3 3 3 3 3 3 2 2 2 2 2 2 2 1
5 5 5 5 4 4 4 3 3 6 6 7 7 6 5 5 5 5 4 4 3 3 3 2 2 2 2
5 6 5 4 4 5 5 5 4 7 7 9 9 9 10 6 6 5 5 5 4 4 3 3 3 3 2
5 4 4 4 6 7 7 8 8 9 9 10 11 10 6 7 8 7 7 6 6 5 4 4 4 3 3
4 4 4 5 6 10 11 13 11 10 12 12 12 10 11 9 8 8 7 6 6 6 5 4 4 4 3
4 5 5 6 8 12 14 15 15 13 12 13 12 11 12 10 8 7 7 6 6 5 4 4 4 4 4
4 5 7 10 11 12 17 19 19 15 14 15 14 16 15 10 9 9 8 7 6 5 4 4 4 3 3
4 6 9 10 11 12 14 16 16 21 18 16 16 18 16 9 9 8 8 6 6 5 4 4 3 3 2
10 9 10 11 13 14 14 14 15 16 21 17 17 20 14 11 9 10 9 7 7 5 4 4 3 3 3
8 8 8 8 9 14 15 14 16 16 21 17 16 22 14 11 10 12 9 8 6 5 5 4 3 3 3
6 6 7 7 7 9 14 16 18 16 21 18 16 23 16 12 14 13 9 8 6 5 5 4 3 2 2

GFSFLT2_250_rhum_024.txt.gz
RH
24 26 30 34 27 20 17 22 22 18 8 6 6 5 5 4 4 4 3 3 3 3 3 3 3 3 3
33 45 42 34 20 25 23 18 10 6 5 6 5 4 4 4 4 4 3 3 3 2 2 2 2 2 2
46 45 36 30 29 25 15 6 6 5 4 4 4 4 4 3 3 3 3 2 2 2 2 2 2 2 2
40 31 30 29 23 10 8 6 4 4 4 4 4 4 3 3 3 3 2 2 2 2 2 2 2 2 2
28 28 28 18 9 6 5 4 3 4 5 3 4 3 3 3 3 3 3 2 2 2 2 2 2 1 1
28 20 11 7 6 4 3 4 4 4 4 3 4 3 4 4 4 3 3 3 3 3 2 2 2 2 1
17 8 7 6 4 4 4 5 4 3 5 3 5 4 6 6 6 6 4 4 4 4 3 2 2 2 2
7 6 4 3 5 5 5 4 3 3 6 5 7 6 8 7 8 7 6 6 5 4 4 3 3 3 3
4 4 4 5 5 4 4 4 4 3 7 8 11 8 9 9 10 10 9 6 6 6 5 5 4 4 3
3 4 5 5 4 4 6 6 6 6 8 10 12 12 8 11 13 10 9 8 7 7 6 6 5 4 4
5 5 4 4 4 5 8 11 13 11 12 14 14 13 12 9 9 12 10 8 8 8 7 6 6 5 4
5 4 4 5 7 9 11 12 12 14 10 15 18 16 12 12 14 11 10 9 8 8 8 7 6 5 4
3 4 5 7 8 9 10 12 12 15 14 14 20 18 15 14 12 14 10 8 9 9 7 7 6 5 4
5 6 7 7 7 6 6 7 10 14 15 12 18 17 14 17 19 10 12 8 7 9 7 6 5 5 4
7 7 6 6 6 6 6 6 7 10 14 15 16 17 15 15 17 14 10 10 10 7 6 5 4 4 3
6 6 6 5 5 5 6 6 6 8 11 14 18 17 14 18 13 13 11 10 8 7 6 5 4 3 3
5 5 6 6 5 5 6 6 7 9 12 13 16 15 16 20 18 14 13 10 8 6 6 4 4 3 2

GFSFLT2_250_rhum_027.txt.gz
RH
47 39 32 26 23 23 26 30 26 24 24 27 23 16 11 6 6 5 5 4 3 3 3 3 3 3 3
42 32 29 26 28 30 25 24 23 25 24 14 10 6 5 4 4 4 3 3 4 4 3 3 3 3 3
32 28 31 36 30 26 22 23 25 18 11 6 6 4 4 4 4 4 4 4 3 3 3 3 2 2 2
32 40 38 31 23 21 26 26 17 7 5 4 3 3 4 5 4 3 3 3 3 3 2 2 2 2 2
43 35 30 21 23 27 22 11 6 3 3 4 4 4 4 4 3 3 3 3 3 3 2 2 2 2 2
32 23 20 25 26 22 8 5 4 3 4 5 3 3 4 4 4 4 4 5 5 5 5 4 4 3 2
20 22 27 24 16 7 4 4 4 4 3 4 3 4 4 5 5 5 6 7 6 6 6 7 6 4 4
25 26 19 10 6 4 5 5 4 2 3 6 4 4 4 7 9 7 8 9 7 8 8 8 7 6 5
25 17 8 6 4 5 5 4 4 3 3 6 5 10 7 8 10 10 11 10 9 9 8 7 7 7 6
15 7 4 4 5 4 4 5 6 7 5 9 6 11 9 8 13 14 12 10 10 10 10 8 7 6 6
8 4 4 5 4 4 5 7 9 9 7 8 5 8 12 10 9 16 14 12 15 12 10 8 6 6 6
4 5 5 4 4 5 6 7 7 8 7 7 6 7 10 10 9 10 12 14 20 10 6 7 8 9 7
5 5 4 5 6 6 5 5 5 7 8 6 6 7 11 9 10 13 12 10 12 11 10 10 9 7 6
5 4 5 7 6 6 4 4 5 6 7 6 6 8 10 12 14 13 14 10 7 9 10 10 8 7 6
5 7 7 6 5 6 5 5 5 5 6 6 6 9 12 11 13 19 17 12 15 13 10 7 6 6 5
7 8 6 6 6 5 5 5 5 6 6 7 8 10 12 14 12 14 16 14 14 10 8 7 6 5 4
7 6 6 6 6 5 5 5 5 6 6 9 10 12 13 14 14 13 15 14 10 9 9 6 5 4 3

GFSFLT2_250_rhum_030.txt.gz
RH
28 29 32 36 37 33 30 22 18 16 19 21 22 25 28 27 26 22 15 9 5 4 3 3 3 3 3
29 31 35 34 31 25 20 18 17 21 20 25 26 27 24 18 10 6 4 3 3 2 3 2 2 2 3
25 34 36 29 24 18 17 19 22 24 25 29 25 19 10 5 4 3 3 3 4 4 4 4 3 3 3
34 30 26 23 16 17 21 22 27 28 26 21 11 6 4 3 4 4 4 4 3 3 3 3 2 2 2
34 28 18 16 18 19 22 26 33 23 14 9 4 4 4 4 4 3 3 3 3 3 3 3 3 3 3
22 19 19 22 17 22 26 29 31 12 4 4 4 4 3 3 3 3 3 3 3 3 3 4 4 4 3
18 22 20 17 22 26 26 21 12 5 4 5 4 3 3 3 4 6 5 5 5 5 6 6 7 6 6
25 20 19 22 26 24 18 9 6 4 4 4 3 4 3 4 6 8 9 8 8 8 8 10 10 9 7
22 21 24 25 19 13 6 5 5 4 3 5 4 5 5 4 5 8 10 8 8 10 11 13 12 10 9
23 25 21 17 8 5 4 5 4 5 4 6 5 5 6 4 5 9 10 9 9 10 14 13 10 12 10
26 22 14 6 5 5 4 3 4 6 6 5 4 4 5 4 4 8 11 9 10 11 13 11 11 13 11
19 10 6 5 5 4 4 5 5 5 5 4 4 4 4 5 4 6 10 10 12 14 13 12 14 12 10
9 6 5 5 4 5 5 5 4 4 5 4 4 4 5 5 5 5 8 10 15 14 16 15 11 9 9
5 6 5 4 5 6 5 4 4 4 6 4 4 5 6 5 5 9 10 10 13 18 14 12 12 9 7
6 5 5 6 5 5 5 5 5 5 5 5 5 6 6 7 10 9 13 14 13 9 8 8 8 6 6
5 6 6 5 5 5 6 5 5 5 5 5 5 7 8 8 10 15 18 14 14 12 10 7 7 6 5
7 6 5 5 5 5 5 5 5 5 5 5 7 9 8 10 12 13 16 14 11 9 8 6 5 4 4

GFSFLT2_250_rhum_033.txt.gz
RH
49 55 58 50 44 44 38 32 28 24 20 18 21 24 22 16 19 21 22 22 21 19 14 10 8 7 6
36 35 36 39 34 33 31 29 25 20 19 23 24 18 14 23 20 22 21 17 12 7 5 4 3 3 2
31 34 33 33 34 30 26 24 22 21 21 19 14 20 20 19 19 16 9 6 5 3 2 2 2 3 3
31 30 32 32 24 22 26 26 26 20 14 18 22 21 19 16 10 6 5 4 3 3 3 3 3 2 2
39 42 27 28 29 34 29 23 19 16 23 26 23 19 10 6 5 3 4 4 4 3 3 3 3 3 3
39 32 30 32 26 20 14 17 29 23 19 21 11 8 5 3 3 3 4 4 3 3 4 4 4 4 4
25 23 20 17 14 20 27 26 25 19 11 10 6 4 3 3 3 3 3 5 6 5 6 6 6 6 6
20 20 18 21 24 25 20 19 14 9 5 6 4 4 4 2 2 3 5 7 8 6 6 6 6 6 7
33 30 27 24 19 18 14 11 8 6 3 4 4 3 4 3 4 5 5 6 6 5 5 6 6 7 8
31 24 22 18 15 12 8 6 5 4 3 4 4 4 5 4 4 4 5 5 5 4 5 7 7 8 8
26 22 19 13 8 6 4 4 4 4 3 6 6 4 4 5 3 4 5 5 4 4 6 7 8 9 11
19 13 9 7 4 4 4 4 3 4 6 5 4 4 4 4 4 4 5 4 5 6 6 7 8 14 15
9 6 5 4 4 4 4 5 5 4 4 5 5 4 5 4 4 5 5 6 5 6 7 8 11 14 12
5 4 4 4 4 5 6 5 4 4 5 5 4 5 5 5 5 5 6 7 8 9 10 11 14 13 10
5 5 4 4 6 5 5 5 5 5 4 5 5 5 5 5 6 7 8 9 11 13 13 11 13 11 11
5 5 6 6 5 5 5 5 4 5 5 5 5 5 6 8 8 8 9 11 12 13 13 12 10 8 8
6 6 6 6 6 5 5 5 5 5 5 5 5 8 9 7 12 16 15 11 10 10 8 8 7 6 5

GFSFLT2_250_rhum_039.txt.gz
RH
79 83 94 100 95 72 70 72 71 68 64 63 58 52 50 49 45 41 37 34 31 30 27 24 23 21 21
74 77 78 64 60 60 62 67 70 69 70 68 64 59 60 55 46 38 32 28 24 22 21 20 18 18 17
72 63 52 49 48 51 58 60 55 48 43 37 32 31 30 30 28 28 27 25 23 21 20 20 18 16 13
43 44 41 50 49 43 41 35 33 31 26 22 20 19 20 20 22 24 22 21 21 22 21 20 18 17 16
46 56 56 52 37 36 31 30 37 36 39 41 39 33 31 28 27 24 22 20 19 19 18 17 16 14 13
72 73 55 43 37 42 47 45 46 38 28 29 23 22 19 18 13 10 9 8 7 6 6 5 5 5 5
68 52 47 46 45 45 36 30 30 28 21 22 17 14 8 7 6 5 4 4 4 3 3 3 3 3 2
56 53 49 43 35 32 29 26 26 19 8 7 7 6 6 5 3 2 2 2 3 4 4 4 3 2 2
57 47 40 33 28 24 20 16 11 9 5 5 5 4 4 4 3 2 2 3 4 4 4 3 3 3 4
42 33 28 25 19 13 9 8 8 6 3 4 4 4 4 4 3 3 3 4 4 4 4 4 3 3 4
32 29 25 17 11 8 6 5 4 5 4 5 5 3 4 5 5 3 4 4 4 4 4 4 4 4 4
24 15 12 10 6 5 5 5 4 5 6 5 5 5 5 4 5 5 4 4 4 4 4 4 4 4 4
12 9 6 5 6 6 4 4 5 5 4 5 5 5 4 4 4 4 4 4 4 4 5 5 5 5 4
6 6 6 6 5 5 5 5 4 5 6 6 5 5 4 4 4 4 5 5 5 6 6 7 6 6 5
7 6 5 6 6 6 5 6 7 6 7 6 5 5 5 6 5 6 7 7 8 8 8 8 8 9 9
7 8 8 6 5 6 7 7 7 8 8 7 7 8 9 9 9 10 10 13 14 14 14 13 13 11 10
10 9 6 6 7 8 7 8 9 8 8 9 10 11 16 19 19 17 17 15 13 12 10 10 9 9 8

GFSFLT2_250_rhum_042.txt.gz
RH
98 93 71 77 93 87 64 63 58 61 65 61 60 56 57 56 54 52 50 51 52 52 56 58 61 59 53
80 69 70 80 88 83 63 60 58 56 51 46 42 36 32 30 28 27 27 29 30 31 32 30 32 35 36
71 55 62 72 57 60 51 49 45 38 34 27 23 22 21 24 31 36 39 38 35 34 32 31 28 24 23
56 66 65 65 60 54 49 36 32 36 34 31 32 30 27 26 27 26 26 27 28 29 28 26 21 20 15
71 86 96 58 56 46 32 25 43 44 39 35 31 26 23 22 20 17 16 14 13 13 14 15 17 19 20
97 66 65 56 42 42 48 46 44 41 32 34 25 26 21 18 11 7 5 4 4 4 5 5 5 6 6
74 72 63 48 49 48 44 39 37 34 25 32 24 22 13 9 6 5 4 4 4 3 3 4 4 4 3
60 51 46 46 43 40 38 37 35 29 17 14 12 10 7 4 3 2 2 3 3 4 4 4 4 3 3
50 51 48 43 41 39 34 30 19 13 7 7 6 4 5 5 3 2 2 3 3 4 4 3 3 3 4
55 46 46 43 36 32 21 13 10 8 4 5 4 4 5 3 3 3 3 3 3 3 4 4 4 4 4
54 50 41 33 25 14 9 7 6 6 5 5 5 4 4 5 4 4 4 4 4 4 4 4 4 4 4
44 37 30 15 10 7 6 6 6 6 6 6 6 5 5 5 5 4 4 4 4 4 4 4 4 4 4
29 16 11 8 8 8 7 7 8 8 6 6 6 6 6 6 6 6 5 5 5 5 5 5 6 5 5
10 8 8 8 8 9 9 8 6 6 8 7 6 6 7 7 7 7 7 7 8 8 8 7 6 6 6
9 9 8 9 10 10 8 7 7 7 7 9 9 8 8 9 10 12 14 13 14 13 12 11 10 10 10
9 10 11 12 9 7 7 8 8 8 8 9 11 14 17 19 18 16 14 13 12 11 10 9 10 9 9
14 14 10 9 7 7 8 8 9 10 11 16 19 21 22 19 16 13 12 13 12 11 10 8 6 7 6

GFSFLT2_250_rhum_045.txt.gz
RH
100 100 100 100 100 78 66 65 64 62 64 70 62 52 52 53 47 44 51 51 50 46 45 46 48 51 50
96 100 93 97 83 68 65 66 67 65 73 58 47 47 48 49 47 44 39 35 34 36 40 38 38 40 42
90 95 91 85 80 66 69 78 74 56 53 45 44 42 42 46 45 39 36 33 32 31 29 30 32 34 36
82 71 79 75 78 85 84 70 65 66 57 50 48 47 42 36 35 28 23 22 22 21 20 19 20 21 21
64 78 71 79 81 75 63 68 66 55 49 50 44 40 36 33 24 18 14 12 10 9 10 9 9 10 11
76 86 76 70 55 63 55 52 57 53 47 46 37 40 33 24 13 9 6 6 6 6 6 5 5 4 4
86 66 60 60 59 55 55 56 56 49 40 46 38 38 24 13 6 5 4 4 4 3 3 3 2 2 2
70 62 60 56 54 53 58 51 43 38 30 41 28 16 10 5 4 4 4 4 3 3 3 3 3 3 3
61 58 58 55 58 54 47 40 38 34 27 26 9 9 6 5 4 5 4 5 4 4 4 3 3 4 4
59 62 61 50 44 40 40 36 34 31 11 10 6 7 6 4 5 6 4 4 4 4 4 4 4 3 3
55 48 41 39 37 34 32 25 12 9 9 9 7 7 9 8 4 6 6 5 5 6 5 4 4 4 4
40 40 37 36 33 19 10 8 8 9 9 11 11 9 6 6 6 6 7 7 4 5 6 5 4 4 4
36 37 29 13 10 8 7 8 9 12 14 10 7 6 7 8 8 8 7 8 8 7 7 7 6 6 6
25 15 10 8 8 9 9 12 11 9 7 8 8 8 8 9 9 11 13 15 16 13 12 12 11 11 10
10 8 7 9 9 12 12 8 8 7 6 9 10 10 12 14 19 18 17 16 14 12 11 11 13 10 11
7 9 9 10 11 8 8 7 7 9 10 11 12 17 22 21 19 18 18 14 14 15 13 8 7 12 8
10 11 12 10 8 8 7 9 10 12 12 14 20 24 22 20 22 19 14 15 12 11 9 9 8 10 11

GFSFLT2_250_rhum_051.txt.gz
RH
100 100 100 100 100 100 100 100 98 87 84 94 86 86 88 86 76 71 75 68 65 64 66 64 61 66 74
100 100 100 100 99 87 88 73 77 66 59 64 74 75 70 65 69 69 70 68 58 54 58 59 61 56 55
100 100 100 100 100 100 100 100 99 84 69 69 72 70 65 76 73 65 58 56 54 56 60 57 53 52 49
94 92 94 100 100 95 91 97 97 86 90 80 75 65 70 71 67 59 58 53 51 51 54 56 52 47 43
85 90 96 99 89 86 87 86 78 74 78 83 82 79 71 62 56 44 42 45 49 49 48 46 44 40 34
90 89 98 99 89 90 97 86 89 74 74 71 61 66 55 48 41 39 39 42 43 43 42 39 33 25 18
99 96 100 99 97 90 88 85 85 76 77 65 47 46 42 40 37 38 41 41 39 35 28 18 11 8 6
90 83 80 83 84 78 73 64 57 50 44 46 40 43 42 38 35 34 31 27 23 13 8 7 6 5 6
84 77 68 56 51 46 47 47 44 40 40 41 40 41 39 32 26 17 14 10 8 8 7 7 8 9 7
70 63 57 54 50 48 43 41 40 36 35 35 32 28 28 16 9 7 7 8 11 10 12 10 8 6 5
57 52 50 47 42 38 36 34 32 26 21 20 15 12 10 9 6 6 8 11 10 8 7 7 7 7 7
52 49 42 34 28 23 20 17 14 11 10 10 11 10 8 6 8 9 9 8 8 8 9 9 10 10 10
30 24 21 18 16 13 9 8 8 8 8 9 9 8 8 9 10 7 7 7 10 10 10 12 16 19 17
21 17 10 8 8 8 8 9 8 8 7 10 12 13 11 9 9 7 9 10 10 14 15 16 20 21 19
9 8 7 8 8 9 8 8 7 8 9 15 15 11 9 9 9 11 10 12 16 19 20 17 21 23 19
8 8 7 7 7 7 8 9 10 11 13 13 10 8 9 10 12 12 14 16 19 21 22 16 12 14 17
8 8 7 7 8 10 12 14 16 16 13 12 10 9 10 12 16 19 17 15 17 16 20 19 15 15 18

GFSFLT2_250_rhum_054.txt.gz
RH
100 100 100 100 100 100 100 100 93 100 100 100 88 94 96 88 93 81 67 73 74 77 82 84 66 67 70
100 100 100 100 100 100 100 100 100 100 100 98 100 100 100 97 86 98 90 86 84 90 88 76 72 73 74
100 100 100 100 100 100 100 100 97 100 100 100 100 100 100 99 88 78 85 90 75 88 80 81 76 77 72
100 100 100 97 98 95 97 96 98 97 96 93 96 97 91 87 88 90 67 64 69 75 72 64 57 53 48
92 91 95 99 99 97 89 86 86 87 88 81 79 81 76 68 58 56 55 52 50 53 54 52 48 47 47
99 100 100 94 99 99 87 84 78 61 63 56 56 57 54 48 42 38 37 42 47 51 55 55 52 47 43
100 100 94 80 78 87 78 78 81 72 65 53 48 44 44 43 43 43 42 42 41 41 41 39 37 34 32
96 91 86 81 74 67 61 55 51 47 46 46 44 43 41 36 36 35 34 32 32 32 31 29 27 24 19
69 64 57 50 48 48 52 52 51 47 46 44 38 39 37 29 25 24 21 18 17 16 14 13 12 10 8
60 58 57 58 59 59 55 46 40 36 35 34 27 25 28 15 13 11 9 10 10 10 9 9 7 7 7
67 65 64 61 50 40 32 27 25 23 21 20 15 12 12 11 7 6 6 7 8 8 7 7 10 10 8
62 55 41 29 23 22 21 18 14 10 9 8 9 8 8 8 8 6 6 6 9 10 11 9 9 8 9
45 31 30 30 24 12 9 8 7 7 8 8 8 8 8 7 6 6 8 8 11 10 8 7 10 11 13
36 35 28 14 9 8 8 8 7 6 6 7 7 8 7 7 8 9 11 9 7 9 8 10 13 15 19
36 25 12 9 8 8 8 8 8 7 7 9 10 11 11 9 11 13 11 8 9 10 13 15 18 22 25
33 15 10 10 10 11 11 11 11 11 10 11 14 16 15 11 13 11 9 9 11 14 19 18 22 36 29
18 11 12 12 12 11 10 11 10 12 13 16 18 19 13 11 10 13 10 12 12 20 26 24 21 22 21

GFSFLT2_250_rhum_057.txt.gz
RH
100 100 100 100 100 100 100 100 100 100 100 100 100 100 100 100 100 100 100 100 100 100 97 83 84 86 82
100 100 96 100 100 100 100 100 100 100 100 100 100 100 100 100 100 100 100 100 99 90 86 100 97 90 88
100 100 100 96 100 100 100 100 100 100 100 100 100 100 100 100 100 98 88 87 75 80 86 84 90 89 94
100 100 100 100 100 100 100 100 100 100 100 100 100 96 87 79 83 86 88 86 83 75 73 66 63 59 63
92 100 100 100 100 100 100 98 99 90 80 84 84 80 82 76 62 59 54 52 53 52 51 52 53 55 54
100 100 100 100 99 100 97 91 87 79 75 70 67 64 56 51 50 50 52 54 56 56 55 55 54 52 50
96 98 97 97 94 86 82 82 77 66 61 54 56 59 63 61 57 52 49 48 47 45 44 43 42 42 41
85 85 84 82 79 76 73 71 70 70 68 63 60 54 47 42 40 38 37 36 35 34 33 32 31 30 28
76 75 73 70 67 66 70 74 72 67 59 47 42 40 36 31 28 24 22 19 18 18 18 18 17 15 12
73 70 71 71 74 78 73 61 50 44 39 34 28 27 26 20 18 16 14 14 14 14 12 11 9 7 7
80 78 76 72 72 61 36 28 29 29 28 26 20 17 14 11 7 6 6 6 7 7 8 9 8 7 7
76 73 68 66 42 31 30 32 26 17 11 9 8 8 8 7 7 5 6 6 7 8 8 8 7 7 7
71 67 62 40 33 36 33 19 10 9 8 8 8 8 8 7 7 5 6 5 6 7 9 9 10 11 11
70 61 42 37 41 34 19 10 9 10 10 10 11 12 11 9 8 8 8 8 7 10 12 12 10 10 10
59 46 45 45 36 19 12 10 12 13 10 11 12 13 12 10 10 11 11 12 15 11 10 10 9 11 12
50 49 49 42 21 13 14 15 16 16 14 11 13 18 19 16 20 15 16 17 13 11 10 10 12 14 16
53 51 40 21 14 14 16 18 18 18 17 16 20 25 23 19 13 16 19 14 10 10 12 13 17 23 23

GFSFLT2_250_rhum_060.txt.gz
RH
40 74 84 100 100 100 100 100 100 100 100 100 100 100 100 100 100 100 100 100 100 97 100 100 100 100 100
28 78 88 93 100 100 100 100 100 100 100 100 100 100 100 100 100 100 100 100 100 100 100 100 100 95 94
32 65 99 100 100 100 100 100 100 100 100 100 100 100 100 100 100 100 100 100 98 92 95 78 84 100 100
47 74 100 100 100 100 100 100 93 97 100 99 96 95 93 100 100 96 88 84 96 96 99 100 100 99 78
43 62 94 96 100 100 100 100 100 100 96 100 100 100 90 86 91 94 100 92 91 96 85 82 73 64 64
48 51 59 76 94 100 91 96 100 97 93 85 83 86 82 77 78 81 81 78 75 70 64 60 59 58 54
60 63 71 73 75 77 78 83 87 87 86 78 80 79 78 73 68 66 62 58 55 51 48 48 46 45 44
69 75 82 88 91 91 92 91 89 90 85 81 80 80 77 70 62 56 51 50 50 48 48 47 45 43 42
75 77 77 76 74 73 73 77 80 82 76 69 65 57 49 42 37 32 28 26 24 23 22 21 20 20 18
70 71 72 71 71 71 72 73 72 69 61 49 38 32 30 29 29 28 28 26 24 22 20 18 16 14 12
70 72 72 70 68 67 67 67 58 44 41 42 44 42 34 23 15 12 10 9 9 8 9 8 8 7 7
72 72 68 66 70 71 64 50 43 45 48 44 30 18 12 10 8 7 8 8 8 9 10 9 8 7 7
71 70 70 70 69 57 46 49 49 44 31 17 14 12 14 16 14 8 8 8 9 11 11 9 8 9 8
71 68 70 70 56 51 53 50 37 22 14 14 14 16 18 19 16 9 9 8 9 12 14 13 13 14 12
66 70 71 59 53 52 42 32 18 14 14 15 16 18 19 19 16 12 10 11 16 15 18 16 16 17 18
66 70 63 53 49 36 29 18 16 15 13 12 14 17 20 19 17 14 14 16 15 16 17 15 12 13 14
72 68 52 46 33 26 15 16 17 15 12 10 10 14 16 18 15 13 15 13 14 12 11 12 11 11 10

GFSFLT2_250_rhum_063.txt.gz
RH
26 20 15 10 15 39 98 100 100 100 100 100 100 100 100 100 100 100 96 100 100 100 100 100 100 100 100
31 28 21 20 28 48 100 100 100 100 100 100 100 100 100 100 100 100 100 100 100 100 100 100 100 100 100
39 35 37 30 36 74 96 100 100 100 100 100 100 100 100 100 100 100 100 100 100 99 100 100 100 100 100
46 45 45 48 49 67 86 100 100 100 100 100 93 100 100 100 100 100 98 99 100 96 97 100 100 100 100
48 45 46 54 56 57 76 100 100 100 100 100 93 100 90 83 90 98 100 100 94 86 91 97 87 91 94
63 52 47 46 51 61 72 81 94 100 100 100 100 97 97 99 97 92 84 82 87 87 83 83 86 84 79
80 69 64 62 58 60 67 74 85 91 96 91 100 100 98 94 89 88 88 92 91 83 79 78 75 70 68
80 75 68 72 74 77 80 88 94 91 86 88 87 85 82 83 81 77 75 75 73 69 64 61 58 57 56
71 66 65 66 68 71 70 72 75 78 77 77 78 77 74 71 67 66 66 68 65 57 49 41 35 33 31
65 60 61 64 65 64 64 65 70 72 71 72 69 64 57 54 51 47 46 49 50 49 45 42 39 35 29
63 63 67 66 66 64 64 65 65 64 68 66 55 49 51 51 50 48 46 41 34 24 20 16 13 11 10
71 75 75 76 65 58 64 64 61 64 60 52 54 50 45 37 29 19 15 13 14 13 16 16 14 13 12
82 80 78 74 61 57 59 58 62 58 49 46 44 37 29 16 14 12 11 12 15 16 19 19 15 13 12
83 82 80 67 54 55 56 62 60 48 40 34 28 18 15 16 17 12 11 12 12 16 20 17 13 13 14
81 78 62 52 53 60 63 61 51 36 28 19 15 16 17 17 16 12 10 11 12 14 17 16 16 18 21
82 61 48 51 61 63 58 46 39 30 16 13 14 16 19 16 11 10 8 9 12 13 14 17 16 17 22
66 49 51 63 70 58 42 37 30 18 16 14 12 13 12 10 8 8 8 9 11 10 10 12 12 8 12

GFSFLT2_250_rhum_066.txt.gz
RH
50 53 53 55 40 29 29 27 23 34 65 96 100 100 100 99 100 100 100 100 100 100 100 100 100 100 100
54 56 65 59 45 31 29 35 34 48 66 100 100 100 100 100 99 92 86 80 90 86 98 100 100 100 100
58 64 72 60 51 47 39 41 46 48 73 100 100 100 100 100 100 100 100 97 89 86 90 93 100 100 100
64 81 83 68 60 60 56 45 48 59 66 71 88 100 100 100 100 100 100 100 100 100 100 100 95 93 100
76 88 86 77 74 65 67 66 62 57 68 84 99 100 89 92 100 98 100 94 95 100 100 100 93 100 100
88 92 86 75 68 67 70 69 68 70 78 89 96 84 80 78 72 75 81 93 100 100 87 89 81 82 81
99 93 74 72 74 69 68 69 74 80 80 74 82 84 88 96 100 100 100 100 98 92 86 84 81 78 83
90 77 78 80 67 64 67 67 69 76 80 80 75 80 84 83 82 82 82 80 78 78 78 78 75 73 68
80 81 73 63 65 69 70 69 70 71 72 74 66 61 68 74 75 73 71 70 72 73 71 66 60 58 54
73 64 64 70 75 77 73 73 71 68 67 60 50 52 57 60 60 62 67 68 63 54 50 50 50 50 49
65 71 79 79 78 78 78 78 74 69 56 50 49 51 59 66 65 59 54 45 44 43 42 40 38 37 32
81 88 86 84 82 85 83 77 68 52 44 48 53 60 60 53 46 32 30 26 24 22 20 19 17 16 16
99 93 90 89 88 85 79 71 54 46 48 55 60 57 46 40 37 22 14 11 14 15 15 17 19 19 16
94 92 90 86 82 79 66 55 59 59 61 58 46 40 40 32 20 13 11 13 10 13 18 18 18 16 14
91 86 85 84 72 52 52 62 66 56 42 39 42 37 26 19 18 14 10 8 8 9 14 16 15 13 14
85 83 75 56 47 49 54 55 46 41 37 31 30 26 24 20 15 10 7 7 7 8 10 12 12 11 15
78 59 46 45 45 47 44 42 42 43 34 28 22 25 23 17 10 7 10 7 8 8 8 10 11 9 14

GFSFLT2_250_rhum_069.txt.gz
RH
50 45 41 40 42 52 55 47 44 36 29 27 26 33 47 71 100 100 100 100 100 100 98 100 100 100 87
44 46 40 41 56 59 63 64 47 48 38 36 39 47 76 87 82 82 91 98 99 100 100 100 100 100 100
44 42 40 48 64 67 71 65 65 56 47 53 54 58 72 72 79 83 92 95 80 80 84 82 87 86 93
41 41 49 61 67 71 72 68 64 62 55 54 60 69 72 76 85 96 100 92 99 100 99 100 88 82 85
48 52 57 66 71 77 71 72 67 65 62 60 63 65 64 72 81 93 100 97 100 100 100 100 100 100 100
54 55 64 74 84 78 76 71 66 63 65 70 74 76 80 85 87 85 82 83 85 87 89 91 88 92 89
62 69 88 80 83 82 74 65 64 68 71 74 79 80 78 77 82 90 91 86 77 74 71 70 69 72 72
72 79 83 82 77 66 66 71 71 74 78 77 78 80 81 78 78 75 69 62 66 66 66 66 64 63 62
84 84 76 68 66 70 75 78 79 81 80 81 80 82 84 82 69 51 44 45 48 51 54 59 66 66 62
65 68 70 72 77 79 78 75 75 82 85 85 82 82 82 68 54 46 42 45 51 56 59 62 60 58 58
75 75 74 75 74 76 80 79 79 85 84 79 77 72 58 55 51 49 47 50 54 53 49 46 45 43 41
77 78 74 74 79 81 80 83 81 77 77 70 61 55 54 56 55 48 48 39 34 30 30 31 28 25 22
78 73 74 76 79 82 81 78 73 62 50 50 52 55 54 45 42 34 30 26 25 21 20 23 23 21 18
75 76 77 79 80 78 70 59 44 39 44 49 50 45 42 40 37 29 24 19 16 20 23 22 19 15 12
80 77 74 75 73 64 45 37 39 38 34 42 51 50 42 33 30 22 17 22 22 16 14 12 11 10 8
74 70 67 66 55 39 37 35 30 26 27 30 31 41 44 35 26 17 21 24 18 13 11 11 8 7 8
68 66 65 59 41 35 34 27 25 24 23 23 26 31 34 34 17 23 30 24 19 15 13 10 8 7 10

GFSFLT2_250_rhum_072.txt.gz
RH
62 58 53 56 45 44 42 41 46 55 58 56 56 46 44 43 36 39 54 89 100 100 100 100 100 100 100
49 52 46 45 41 41 40 46 54 67 60 69 67 59 48 50 51 49 67 80 100 100 98 100 100 100 91
44 40 43 42 44 45 51 51 63 68 70 82 66 60 58 54 55 66 69 69 85 90 97 100 100 100 100
40 42 42 49 51 56 57 59 63 69 78 74 68 62 57 63 68 70 88 84 97 90 89 77 82 95 100
42 43 47 54 59 62 66 72 76 80 69 65 61 61 63 62 67 75 83 84 85 89 83 81 79 79 68
39 48 48 61 71 70 71 80 88 73 67 62 62 63 65 70 74 76 80 82 82 84 84 83 82 82 89
46 49 51 57 72 79 81 78 69 67 65 69 72 72 70 69 71 75 78 84 94 99 96 90 84 78 82
51 55 60 65 68 66 68 73 74 72 70 68 73 76 75 74 74 76 78 81 84 88 90 86 76 66 57
63 65 64 64 68 74 76 75 68 64 66 67 69 74 76 75 76 79 82 80 75 62 55 50 50 50 48
73 69 67 69 70 72 72 65 62 64 68 72 75 75 74 74 72 70 63 56 52 45 45 48 55 61 61
77 76 73 72 72 74 72 70 68 66 66 66 67 67 65 57 48 49 48 46 44 44 45 47 51 54 55
82 81 83 82 81 76 74 73 69 67 68 66 62 53 43 42 40 38 40 42 44 40 43 48 48 45 40
85 86 83 82 80 78 78 75 71 71 67 60 51 40 37 34 30 27 29 35 40 45 42 37 32 26 22
88 86 87 84 81 79 74 69 68 65 55 39 37 33 25 24 23 22 23 26 31 39 37 27 22 21 20
85 87 85 79 76 73 70 67 62 45 33 33 30 26 24 21 21 22 23 25 28 27 24 24 22 22 20
85 84 77 75 76 72 70 60 41 34 32 25 24 23 23 22 22 21 23 26 27 23 24 28 23 21 27
79 77 80 84 77 72 54 39 35 29 23 21 21 22 23 23 22 22 26 29 23 24 26 31 24 22 26

GFSFLT2_250_rhum_075.txt.gz
RH
56 50 52 42 41 37 45 43 43 44 47 46 53 57 66 63 53 48 43 41 37 36 48 61 90 91 100
44 52 47 46 36 36 38 40 44 45 51 55 58 67 75 71 61 54 50 52 50 55 58 69 90 100 100
47 42 44 41 36 31 37 40 44 49 58 60 67 78 82 72 65 59 56 56 59 57 72 83 86 96 100
52 40 48 38 34 36 39 43 46 51 62 65 73 76 72 65 62 61 62 60 63 64 63 75 84 97 98
56 57 50 39 38 37 42 46 49 55 70 76 71 62 57 59 62 66 69 72 76 77 74 70 72 83 98
78 52 44 41 44 47 50 53 62 59 61 60 60 64 63 62 62 63 66 72 82 83 88 94 90 92 82
73 51 52 51 60 63 67 66 62 63 63 65 66 65 60 57 57 59 63 66 68 71 78 84 92 94 94
70 59 60 60 60 70 71 70 72 73 67 68 74 71 66 63 60 60 61 62 65 68 71 74 78 83 91
73 70 74 70 65 67 69 74 79 81 83 79 75 70 69 66 62 61 61 61 59 60 62 64 66 69 74
78 77 77 70 70 74 77 77 84 90 85 78 71 68 64 62 61 61 58 52 47 47 49 45 42 41 42
83 87 87 81 77 73 79 82 87 90 84 76 70 70 70 68 63 54 39 34 33 35 36 36 36 38 39
84 90 97 82 76 82 88 85 85 86 84 78 76 76 74 63 44 33 31 30 27 25 25 26 27 29 30
76 85 81 75 75 79 85 86 84 85 81 81 83 72 52 36 32 26 24 22 23 23 24 24 23 24 24
77 78 76 74 80 85 88 85 84 83 81 85 75 51 38 32 25 22 21 20 20 21 22 22 22 23 24
80 76 79 84 85 88 85 84 85 81 84 79 50 41 37 25 22 20 19 20 21 21 22 24 23 23 26
83 84 86 88 88 90 89 85 82 81 77 52 41 36 26 23 21 19 21 21 21 22 24 24 24 25 27
86 90 90 90 92 90 86 85 82 75 50 40 36 26 25 23 22 21 22 22 22 22 25 29 25 22 34

GFSFLT2_250_rhum_078.txt.gz
RH
98 78 64 60 52 43 38 32 30 32 31 33 36 43 46 57 66 72 79 70 58 51 46 39 38 33 38
83 67 54 53 44 41 35 34 34 33 36 37 42 45 47 62 64 70 71 68 63 56 52 49 46 54 51
72 60 42 42 35 41 40 43 39 39 44 43 47 50 53 64 71 71 63 55 53 57 58 56 58 57 64
63 45 39 40 48 51 53 43 45 44 48 53 57 60 58 58 57 58 59 64 65 65 68 72 69 67 62
45 40 49 64 66 58 51 46 48 48 61 63 66 70 70 67 65 68 69 66 64 65 71 73 77 83 83
40 62 74 82 71 74 58 56 60 56 57 70 72 72 73 72 75 72 69 69 67 65 65 65 72 80 84
76 87 100 82 79 72 68 61 64 61 56 60 70 74 78 82 84 80 78 73 68 66 64 64 64 66 74
98 100 100 90 83 74 68 68 72 70 69 65 69 76 79 80 81 81 76 70 66 62 61 63 64 65 66
100 100 96 88 83 72 66 72 77 73 76 74 78 79 80 82 82 84 78 70 67 66 63 54 48 49 57
94 99 89 93 82 74 68 75 74 78 72 69 73 78 80 82 84 82 80 78 75 70 50 38 35 32 31
100 95 96 95 78 72 72 75 74 74 74 73 74 75 76 80 81 83 79 76 63 40 36 34 32 31 29
100 99 99 88 80 76 75 79 77 79 84 81 79 81 83 84 82 74 70 55 38 35 31 25 23 22 21
100 100 92 89 83 82 90 85 80 86 88 84 82 85 84 81 77 66 48 33 32 26 23 21 19 19 19
99 94 96 87 88 96 91 83 88 89 85 81 83 82 80 78 67 48 36 33 24 21 20 20 20 20 20
93 92 96 91 95 92 90 90 89 84 79 80 80 82 85 73 50 36 30 24 22 20 22 22 21 21 21
89 98 96 95 93 91 91 88 85 81 83 81 85 88 80 53 39 30 22 23 21 22 23 23 20 21 22
92 92 97 99 90 88 85 83 79 81 80 86 90 85 62 48 33 21 21 21 24 23 23 23 22 23 26

GFSFLT2_250_rhum_081.txt.gz
RH
57 48 44 45 42 49 56 69 67 50 34 31 35 31 34 40 40 44 48 57 65 68 65 55 51 45 43
40 42 38 47 53 67 73 69 49 49 45 42 42 38 42 46 50 57 61 68 66 58 54 53 52 52 50
36 41 42 43 54 77 71 59 56 62 52 51 48 49 46 51 59 59 61 60 63 66 67 65 66 66 64
36 39 35 57 81 70 54 74 72 73 73 59 53 52 54 56 64 68 66 69 72 75 74 72 67 64 66
34 41 58 80 70 54 76 81 86 95 74 63 62 59 54 56 59 63 70 72 72 69 70 75 77 75 72
38 42 79 72 66 70 94 100 100 92 80 73 68 63 67 69 66 68 72 74 74 76 81 80 77 73 70
34 75 76 78 79 95 100 99 91 82 80 77 72 66 73 73 71 69 69 71 72 73 74 74 73 73 72
51 64 78 86 99 100 100 86 84 78 82 73 75 74 73 74 71 69 72 71 72 72 71 70 70 68 69
64 73 91 100 100 100 94 92 83 88 80 76 75 74 73 70 72 76 74 76 75 74 74 74 73 72 69
74 90 100 100 100 100 92 91 94 96 87 79 77 78 79 79 78 75 74 75 77 77 76 77 75 67 54
93 100 100 100 100 100 100 92 98 99 81 78 84 84 81 84 85 79 77 80 78 76 77 73 59 42 31
100 100 100 100 100 100 100 99 95 91 78 83 90 90 87 86 82 78 81 82 80 82 76 55 37 31 28
100 100 100 100 100 100 99 94 87 82 84 93 93 90 88 88 80 80 81 77 83 80 57 37 32 27 20
100 100 100 99 95 96 88 82 86 90 95 100 98 92 91 86 85 83 83 82 80 60 40 32 24 20 20
100 100 100 91 84 84 84 88 94 97 100 100 96 94 90 86 88 86 86 87 71 44 37 24 19 19 21
91 96 99 96 95 92 92 97 99 98 97 92 95 95 94 90 92 90 90 76 49 40 27 22 19 20 22
100 100 100 100 100 99 100 97 100 99 94 91 95 99 100 99 97 88 75 51 42 26 22 23 24 20 21

GFSFLT2_250_rhum_084.txt.gz
RH
29 31 32 30 30 30 34 36 43 34 32 41 65 59 56 63 52 43 44 52 58 61 67 68 75 63 54
29 30 31 30 34 37 37 37 45 35 42 74 72 64 63 73 54 52 47 51 58 62 62 62 60 60 58
31 31 32 32 35 34 35 41 41 45 56 82 67 80 81 73 58 58 56 54 55 62 64 67 63 64 63
30 32 35 37 36 37 39 46 51 55 71 78 80 89 90 75 68 62 60 63 64 66 72 66 64 66 67
36 34 34 36 36 34 35 45 62 79 79 95 92 94 90 75 71 69 62 64 61 66 69 73 75 78 80
33 32 37 37 34 34 53 61 76 92 84 93 100 94 82 75 75 77 76 69 67 63 65 68 71 73 77
37 38 39 38 39 53 60 85 93 93 100 100 100 83 77 83 78 81 78 71 68 67 65 65 68 69 69
36 37 37 44 58 67 81 84 94 100 100 97 90 84 84 85 82 82 79 79 78 77 76 75 73 72 71
45 45 55 63 71 85 88 91 100 100 100 100 95 98 95 86 87 82 77 80 80 79 80 79 78 77 77
53 64 67 80 87 93 98 100 100 100 100 100 100 100 90 85 86 76 82 84 81 78 80 79 75 72 73
63 70 80 84 94 100 100 100 100 100 100 100 97 99 94 90 87 81 87 89 84 81 84 83 79 78 76
82 88 93 100 97 100 100 100 100 100 100 94 88 97 92 86 88 88 94 90 85 85 85 83 80 81 80
92 98 100 100 100 100 100 100 100 100 94 82 92 94 92 88 90 88 92 91 91 91 90 87 85 85 76
99 100 100 100 100 99 93 84 93 87 96 100 100 100 100 95 90 91 93 90 91 92 89 89 89 79 62
100 100 98 97 99 98 98 98 100 100 100 100 100 100 100 98 91 95 92 98 99 95 91 85 78 66 47
100 100 100 98 97 96 95 96 100 100 100 100 100 100 100 95 97 92 95 100 98 92 90 89 69 48 40
99 98 97 97 98 98 100 100 100 100 100 100 100 100 98 91 92 94 91 98 93 87 93 89 66 39 29

GFSFLT2_250_rhum_087.txt.gz
RH
32 32 32 34 34 33 32 34 34 35 37 40 39 39 40 48 60 68 64 71 60 53 50 56 61 65 63
33 30 31 31 32 33 34 35 36 38 41 41 40 38 47 66 75 82 68 80 59 60 56 56 59 70 67
31 29 33 34 34 36 37 36 38 40 43 41 43 42 64 84 89 83 90 81 66 65 60 64 67 64 73
33 34 35 32 35 38 37 38 39 40 40 43 43 50 84 96 97 100 93 80 77 72 71 64 66 70 71
29 31 30 30 33 32 36 34 41 44 45 44 57 75 87 98 100 100 89 79 79 80 76 70 65 66 66
21 22 25 26 29 31 36 43 42 42 48 72 76 82 95 100 100 100 87 75 77 84 81 80 79 74 69
19 20 22 27 30 34 38 45 52 58 78 80 89 92 100 100 100 99 87 85 82 84 81 76 78 82 84
22 23 26 32 37 40 49 61 71 87 90 93 92 100 100 100 100 100 100 91 86 86 83 79 82 82 87
28 32 38 40 41 52 68 72 87 94 97 98 100 100 100 100 100 100 93 88 87 91 85 86 84 88 88
38 45 49 53 61 70 81 91 96 99 100 100 100 100 100 100 100 98 91 88 96 89 89 87 88 88 89
45 46 55 69 81 86 90 91 100 100 100 100 100 100 100 100 100 100 89 90 98 96 91 86 90 92 87
59 60 67 84 86 90 96 100 100 100 100 100 99 94 96 100 100 95 95 100 97 95 91 89 90 88 84
82 86 88 92 97 99 100 100 100 100 100 95 95 93 98 96 98 100 100 95 95 96 84 88 87 92 90
92 95 100 100 100 100 100 100 100 100 100 100 100 100 100 100 94 90 93 98 94 87 92 90 93 96 92
100 100 100 100 100 100 100 100 100 100 100 100 100 100 100 99 97 92 88 78 86 95 96 96 95 97 89
100 99 97 98 100 100 100 100 100 100 100 100 99 98 99 96 94 91 86 82 89 96 92 90 86 85 90
95 94 93 98 99 97 100 100 100 100 100 100 100 100 100 95 94 94 88 94 96 89 92 97 93 82 84

GFSFLT2_250_rhum_090.txt.gz
RH
89 68 30 31 32 31 32 32 32 33 39 40 39 41 48 46 46 52 48 52 73 84 75 75 54 58 53
38 31 28 30 29 30 30 34 34 30 30 35 42 48 46 50 50 49 57 76 86 94 90 78 62 63 61
29 25 25 28 28 30 33 33 32 28 34 37 39 39 45 48 54 55 69 95 97 100 96 82 74 72 68
23 24 24 27 27 25 26 24 25 26 26 31 35 39 47 53 56 69 87 99 99 100 97 89 76 80 76
23 26 24 20 21 22 22 22 22 24 27 32 41 42 46 54 62 88 95 100 100 100 100 90 85 81 83
16 19 19 19 20 20 20 21 24 32 34 40 50 53 57 65 80 99 100 100 100 100 100 97 100 86 84
16 17 17 17 19 22 25 30 36 41 46 52 58 60 75 87 89 98 100 100 100 100 100 100 100 91 94
17 19 21 22 28 35 39 36 40 47 57 63 69 81 87 95 100 100 100 100 100 100 100 100 98 94 94
24 24 28 30 36 40 48 55 60 65 69 78 84 88 96 100 100 100 100 100 100 100 100 99 100 94 94
24 26 31 36 41 46 54 60 66 67 83 91 95 95 97 100 100 100 100 100 100 100 100 100 100 100 97
32 34 38 42 47 53 68 77 81 89 95 98 99 100 98 97 99 100 98 100 100 100 100 100 100 100 99
47 52 55 56 59 68 74 81 89 96 100 100 100 100 100 99 97 98 100 100 100 100 100 100 99 100 99
71 76 76 78 81 83 88 93 98 99 99 99 99 100 100 100 100 100 100 100 100 100 97 96 100 96 85
78 82 87 91 95 100 99 100 100 100 100 100 100 96 97 97 100 100 100 100 100 100 100 100 95 90 93
93 96 96 98 100 99 98 96 97 99 100 100 100 100 98 94 95 97 100 100 100 100 99 90 91 95 89
92 92 93 95 95 92 92 93 99 100 100 100 100 100 100 100 100 97 95 93 99 100 100 99 94 97 96
96 99 97 94 93 93 95 93 93 98 98 98 99 98 100 98 96 98 90 90 96 96 97 97 95 89 97

GFSFLT2_250_rhum_093.txt.gz
RH
85 96 100 75 90 77 30 31 31 32 33 35 34 31 29 27 32 38 37 43 54 64 61 68 87 81 77
65 67 74 100 76 32 30 30 32 33 34 32 27 24 27 29 29 32 37 43 65 71 75 82 96 94 78
78 80 93 78 33 31 29 30 27 25 23 22 24 24 26 27 28 34 39 45 65 81 84 97 99 100 88
33 35 38 34 30 28 26 20 19 19 20 20 21 23 25 29 32 38 49 62 71 96 97 100 100 100 96
34 34 30 28 20 18 18 19 18 19 20 23 24 25 33 36 44 48 55 68 83 100 100 100 100 100 100
31 27 19 17 16 16 16 17 20 26 26 26 30 37 42 46 62 57 58 72 91 100 100 100 100 100 100
19 17 16 16 17 19 21 21 26 29 37 44 48 60 65 60 65 74 81 88 100 100 100 100 100 100 100
17 17 20 22 19 18 20 23 26 30 42 56 62 73 78 71 73 83 96 100 100 100 100 100 100 100 100
23 22 19 18 21 22 23 25 30 40 53 62 69 75 84 87 95 97 100 100 100 100 100 100 100 100 100
21 20 21 22 24 26 29 30 36 43 57 68 79 90 95 96 100 100 100 100 100 100 100 100 100 100 100
25 26 28 29 32 38 43 47 51 60 68 84 90 94 98 98 100 100 100 100 100 100 98 95 93 95 96
39 39 44 45 48 56 63 69 70 76 78 79 87 94 99 100 100 100 100 100 99 100 100 99 98 99 100
54 57 54 54 58 66 73 81 87 92 93 95 97 100 100 100 98 94 95 100 100 100 100 100 100 100 99
65 67 68 75 74 71 76 78 83 87 88 88 91 94 93 92 94 99 97 93 96 98 96 95 94 92 93
74 74 85 86 83 82 84 87 92 95 95 95 100 99 100 100 99 100 100 100 100 100 98 99 100 98 94
78 82 85 87 90 91 94 94 96 97 93 91 94 100 97 98 98 100 100 100 100 98 97 95 92 95 96
92 95 95 92 92 93 96 97 97 96 94 92 92 97 100 97 96 92 89 94 99 100 100 100 97 92 98

GFSFLT2_250_rhum_096.txt.gz
RH
72 72 79 79 100 90 95 78 71 79 69 30 33 30 26 24 24 28 29 31 33 40 40 41 55 70 83
64 100 100 100 100 88 48 54 40 28 29 30 21 19 18 21 24 26 30 35 32 39 43 56 72 83 88
92 93 80 69 65 52 55 30 23 24 23 18 17 19 21 22 28 32 33 36 39 42 61 63 89 98 100
47 49 64 45 40 36 23 21 21 17 15 16 18 20 24 30 36 42 45 48 50 51 73 75 91 100 100
52 52 78 48 22 21 21 17 15 14 15 18 22 28 36 45 51 53 58 68 71 64 84 96 98 100 100
62 46 27 19 23 20 16 13 14 18 18 17 22 28 37 47 62 78 77 81 86 82 93 97 100 100 100
26 20 24 21 17 16 15 18 18 16 16 21 24 31 42 54 76 90 91 94 93 96 100 100 100 100 100
22 21 19 17 16 16 20 17 18 19 21 24 29 36 52 75 89 92 96 100 100 100 100 100 100 100 100
20 18 17 18 22 20 18 20 21 23 27 30 35 48 59 74 88 98 100 100 100 100 100 100 100 100 100
18 19 24 25 21 22 25 28 27 30 36 38 42 54 68 82 91 99 100 100 100 100 100 100 100 100 100
26 29 26 24 29 38 40 39 36 39 48 54 59 64 71 83 88 95 100 100 100 100 100 100 100 100 100
31 28 28 43 57 59 51 51 54 57 61 64 66 76 82 86 90 96 100 100 100 100 100 100 100 100 100
30 41 64 68 71 66 64 66 72 74 74 77 78 82 87 92 94 98 100 100 100 100 100 100 100 100 100
57 83 85 78 76 68 69 73 79 82 87 88 93 96 95 95 95 95 96 99 100 100 98 100 99 99 98
89 87 84 76 79 79 81 83 85 86 87 88 93 95 92 90 94 97 96 96 95 95 96 97 97 96 98
93 85 82 83 88 87 90 97 95 97 96 96 100 100 100 99 97 98 97 97 98 98 98 95 93 95 93
78 73 76 83 81 82 94 100 100 100 100 98 99 100 99 96 96 96 99 99 100 100 100 100 100 98 100

GFSFLT2_250_rhum_099.txt.gz
RH
97 91 100 100 100 85 79 87 90 76 52 47 44 20 18 18 16 15 16 19 21 26 27 28 37 45 54
100 100 99 100 86 82 74 74 52 50 50 35 17 18 16 14 14 17 20 26 32 31 35 40 43 58 64
100 100 98 78 100 74 47 43 66 51 37 15 16 14 12 13 16 18 24 32 40 42 43 51 53 63 83
64 90 92 90 81 44 71 61 58 31 18 17 14 12 13 15 15 18 23 35 42 50 58 57 67 71 91
77 86 84 65 44 50 60 53 31 16 18 16 12 14 16 14 16 18 24 38 51 61 72 76 89 96 96
55 45 52 67 55 59 33 27 19 18 16 13 16 17 16 17 19 21 29 41 54 74 82 82 93 100 100
75 65 74 66 67 44 28 18 18 16 15 20 19 18 19 20 22 26 34 51 64 80 90 93 100 100 100
67 88 78 63 46 21 18 18 16 18 23 21 21 25 24 23 24 30 45 58 81 92 94 99 100 100 100
74 63 45 24 20 18 18 16 19 27 24 27 34 32 28 30 30 39 51 64 80 94 100 100 100 100 100
28 26 23 19 19 19 19 25 30 25 31 43 42 37 38 40 44 52 65 83 94 98 100 100 100 100 100
22 22 21 21 21 24 28 30 27 34 50 53 45 41 45 51 61 72 78 83 96 100 100 100 100 100 100
23 22 22 24 29 31 30 29 37 58 64 58 54 54 53 62 77 83 90 95 94 100 100 100 98 99 100
24 28 33 35 34 34 35 44 67 70 69 65 65 67 68 76 85 92 98 99 100 100 100 100 100 100 100
43 41 40 36 39 47 66 84 83 74 80 75 76 78 83 83 86 91 95 100 100 99 100 100 100 100 100
54 49 44 48 60 82 92 94 90 78 83 84 87 90 92 93 93 93 93 94 96 100 100 100 100 100 98
59 60 66 83 98 100 100 89 77 77 84 91 96 97 99 96 94 98 100 100 99 98 98 98 95 94 95
80 90 88 98 100 100 100 90 85 88 90 94 97 100 99 97 98 98 100 100 100 100 100 100 100 98 99

GFSFLT2_250_rhum_102.txt.gz
RH
100 100 99 88 100 100 99 92 99 100 100 85 97 85 58 49 34 14 13 11 13 16 18 23 32 34 34
100 100 100 78 78 100 100 100 85 75 67 60 58 61 50 29 18 12 11 14 15 14 17 24 31 39 40
100 100 100 100 100 90 77 71 64 60 62 95 80 51 30 21 13 11 14 15 13 15 17 22 36 44 45
100 95 83 100 62 74 83 82 74 58 67 59 48 31 17 13 11 14 16 14 16 17 18 23 37 51 55
95 100 71 98 94 100 100 82 67 86 57 44 28 17 14 13 13 17 14 18 18 19 21 33 50 57 65
89 88 62 100 86 68 83 63 64 51 47 24 18 15 14 14 18 16 21 22 20 20 25 35 48 64 74
79 74 83 100 94 84 69 71 57 54 26 18 16 16 18 20 19 22 28 23 22 25 35 48 61 75 84
68 77 88 79 87 56 55 60 50 26 19 18 16 19 24 23 24 32 30 26 26 26 42 56 72 87 93
78 64 83 76 78 72 48 44 20 20 19 17 21 27 28 31 35 38 33 32 33 36 50 62 76 91 96
87 94 73 63 66 43 36 24 21 20 19 24 31 30 34 49 49 43 37 38 42 46 59 80 92 95 100
79 96 74 71 40 27 23 24 23 24 28 32 32 36 56 68 61 53 48 45 54 60 67 80 96 94 87
71 58 38 31 26 25 26 29 32 35 35 36 38 57 73 76 67 64 60 57 62 73 83 84 94 99 97
39 36 31 33 33 34 35 41 42 40 40 46 58 77 84 81 71 66 64 68 70 74 81 87 94 100 100
46 43 44 51 48 49 54 54 52 50 58 74 86 93 90 85 83 82 80 79 80 86 91 93 89 91 94
74 73 70 65 66 68 66 62 64 76 90 97 98 94 85 85 92 93 96 94 92 91 93 91 92 92 94
87 85 77 83 83 83 80 76 89 96 100 100 95 92 93 94 93 98 100 100 100 100 98 98 100 98 97
91 93 96 96 94 94 94 98 100 100 100 96 95 93 100 98 98 100 99 100 99 100 99 99 98 95 95

GFSFLT2_250_rhum_105.txt.gz
RH
72 74 73 98 99 100 100 100 100 100 100 100 100 72 89 100 95 71 50 35 18 10 11 13 14 14 14
85 80 100 100 97 100 100 100 96 100 89 96 75 73 98 91 75 54 42 21 10 11 13 14 14 14 15
100 100 100 100 100 100 100 100 100 92 97 100 88 88 98 83 58 36 20 11 11 14 15 14 16 16 18
93 100 97 86 92 100 95 100 83 99 97 85 87 98 70 61 40 34 12 12 13 16 15 19 19 18 21
78 100 100 100 100 99 79 94 91 90 99 88 95 86 64 66 26 12 13 14 16 16 21 22 20 21 32
100 100 100 100 100 100 100 72 90 100 91 90 90 79 79 36 16 13 16 18 19 18 28 22 20 26 38
100 100 100 90 98 99 93 97 95 100 100 87 85 77 53 21 17 16 20 21 20 27 29 24 24 36 43
100 100 100 100 100 100 92 92 100 99 99 89 72 56 20 17 21 24 25 24 25 34 30 28 27 39 55
100 100 92 100 95 100 100 100 79 87 75 61 54 24 20 23 28 32 28 26 39 40 33 32 37 40 58
100 99 98 100 96 100 98 76 59 83 43 26 24 24 26 33 36 38 33 38 49 46 38 38 42 50 66
78 69 70 78 64 64 58 59 44 32 31 29 28 30 35 44 44 44 50 58 58 53 48 47 53 67 78
46 53 63 52 52 53 60 40 40 38 36 35 40 42 52 54 45 58 70 83 74 66 59 55 58 67 81
38 42 49 56 60 57 64 59 56 52 49 54 55 56 59 54 56 84 95 95 87 82 76 70 69 73 82
43 53 60 67 73 82 88 81 80 73 75 72 72 66 65 73 87 98 100 98 93 91 90 84 83 81 89
56 69 79 88 92 94 98 93 88 92 88 87 81 81 91 97 100 100 100 97 96 99 100 95 92 91 91
77 81 90 95 98 100 100 97 97 100 100 97 97 99 100 100 100 100 100 97 100 100 100 100 99 98 98
76 83 91 98 100 100 100 100 100 100 100 100 100 100 100 100 98 100 100 95 96 98 100 100 100 100 100

GFSFLT2_250_rhum_108.txt.gz
RH
98 98 100 100 99 87 65 86 58 97 99 100 96 95 100 93 100 100 100 100 88 70 70 46 20 12 12
100 100 99 87 76 64 56 100 49 100 86 94 77 94 99 100 100 93 76 74 86 89 73 39 13 12 13
82 80 69 65 74 72 62 100 99 94 98 98 77 100 100 100 100 77 90 74 78 97 51 31 14 14 14
79 88 77 78 70 79 100 84 99 100 100 100 100 89 93 88 59 82 100 82 95 72 27 15 15 16 18
74 87 93 100 100 100 100 100 100 100 100 84 97 84 96 82 96 73 93 99 63 41 19 14 19 18 27
100 100 100 100 96 100 100 93 100 100 100 100 83 100 96 94 96 100 99 78 41 22 17 17 20 24 29
100 100 81 100 100 100 97 100 100 100 94 97 100 98 99 96 100 91 65 41 22 20 20 22 22 32 30
100 100 94 100 100 100 96 91 100 100 99 100 100 100 99 95 94 54 40 26 24 24 27 25 29 37 33
100 100 100 100 100 100 100 100 87 82 81 76 72 93 87 82 59 47 29 30 33 33 32 31 39 42 37
76 89 78 80 69 66 59 81 81 86 67 42 93 78 57 54 50 37 36 42 46 42 38 39 55 48 43
34 44 55 55 64 44 56 60 48 39 56 46 53 48 55 49 48 46 52 61 56 47 47 55 66 57 55
31 37 33 37 28 35 36 36 42 49 52 49 49 57 59 61 66 64 73 70 62 59 65 74 76 68 65
37 35 34 33 40 35 36 41 57 55 57 61 72 72 76 89 85 84 87 76 72 81 89 96 84 78 76
35 34 41 36 33 37 52 65 62 70 80 90 84 87 94 97 99 98 92 88 93 97 100 100 97 90 87
26 35 61 27 45 54 65 73 87 93 99 97 100 96 100 100 100 100 100 100 100 100 100 100 100 100 100
34 52 55 59 63 66 79 90 96 99 100 100 100 100 100 100 100 100 100 100 100 100 100 100 100 100 100
44 53 66 71 66 84 89 97 97 100 100 100 100 97 100 100 100 100 100 100 100 100 100 99 100 99 100

GFSFLT2_250_rhum_111.txt.gz
RH
59 69 68 100 87 96 86 98 100 100 100 88 85 50 55 75 88 93 100 100 98 91 89 95 99 93 65
75 85 82 81 100 97 89 92 100 90 61 60 62 73 85 83 100 100 100 100 94 62 84 84 100 77 44
96 99 81 89 86 87 91 82 76 75 99 94 100 94 96 100 100 99 93 91 94 76 100 97 89 54 32
100 100 100 100 100 100 97 100 100 100 100 100 100 100 100 100 94 92 76 92 95 99 100 72 38 34 21
100 100 100 100 100 100 100 100 100 100 100 100 100 100 100 78 86 76 90 95 99 67 74 32 28 23 23
100 98 100 100 100 100 100 100 98 100 99 100 100 100 100 100 100 91 99 99 75 61 32 23 24 25 26
100 100 100 100 100 100 100 100 100 100 100 100 95 100 100 100 100 100 98 77 36 40 32 26 28 27 31
100 100 100 100 100 100 100 100 100 100 92 90 100 100 100 89 75 87 87 56 36 37 31 29 30 33 40
60 60 63 81 77 81 78 65 68 65 47 84 84 82 80 66 75 91 73 52 38 40 33 33 38 43 46
37 31 57 61 64 70 60 40 41 40 47 66 89 66 62 72 84 86 53 43 42 39 40 42 49 51 50
25 30 37 42 42 35 36 35 41 39 38 72 64 64 80 86 65 49 45 53 49 51 50 58 66 54 55
26 30 31 34 34 35 43 47 48 45 48 53 66 66 53 49 46 52 60 66 72 68 71 76 78 62 66
16 21 24 25 33 43 48 56 54 51 53 48 58 58 46 48 74 79 88 91 87 86 95 87 77 83 81
6 8 11 16 22 31 38 52 50 53 52 56 53 53 71 84 91 97 98 98 96 100 100 95 82 90 100
6 7 8 10 15 26 38 54 56 55 57 60 68 78 89 99 100 100 100 100 98 100 100 100 98 97 100
5 6 8 11 16 27 36 44 45 44 61 74 83 92 100 100 100 100 100 100 99 100 100 100 100 100 100
6 7 9 12 17 25 32 40 55 62 80 90 96 100 100 100 100 100 100 99 100 100 99 98 100 100 100